User: anonymous   Login
Location: Peebles
(55.6412°N, 3.1714°W)
Time: 03:12:04
(UTC+01:00)
Language:

TRANSIT 5B-2 DEB - Orbit

View from above orbital plane
View from above orbital plane
View from above satellite
View from above satellite

Ground track
Ground track

The orbit data is extracted from the following two-line orbital elements,

1 42666U 63049P   22181.26607331  .00005489  00000-0  44761-2 0  9998
2 42666  89.8930  84.8781 0098895 181.0867 309.9247 13.87358659431747
Epoch (UTC): 30 June 2022 06:23:08
Eccentricity: 0.0098895
inclination: 89.8930°
perigee height: 865 km
apogee height: 1010 km
right ascension of ascending node: 84.8781°
argument of perigee: 181.0867°
revolutions per day: 13.87358659
mean anomaly at epoch: 309.9247°
orbit number at epoch: 43174

The dashed part of the orbit path shows where the satellite is in the earth's shadow,  

DLR